Location: Newark
(54.2500°N, 9.1833°E)
Time: 14:10:57
(UTC+00:00)

Vanguard 2 Rocket - Pass Details

Date: 19 December 2019
Orbit: 554 x 3326 km, 32.9° (Epoch: 17 January)

Event Time Altitude Azimuth Distance (km) Brightness Sun altitude
Rises 20:11:18 0° 264° (W) 6,214 11.8 -43.3°
Reaches altitude 10° 20:20:49 10° 233° (SW) 4,289 10.5 -44.6°
Maximum altitude 20:22:33 10° 224° (SW) 4,065 10.3 -44.8°
Drops below altitude 10° 20:24:09 10° 215° (SW) 3,921 10.2 -45.1°
Enters shadow 20:25:06 - 209° (SSW) 3,871 10.1 -45.2°
